Regional Weather Roundup
Issued by NWS

Home | Current Version | Previous Version | Text Only | Print | Product List | Glossary On
Versions: 1 2 3 4 5 6 7 8 9 10 11 12 13 14 15 16 17 18 19 20 21 22 23 24 25 26 27 28 29 30 31 32 33 34 35 36 37 38 39 40 41 42 43 44 45 46 47 48 49 50
000
ASUS43 KLMK 291810
RWRKY
KENTUCKY REGIONAL WEATHER ROUNDUP
NATIONAL WEATHER SERVICE LOUISVILLE KY
200 PM EDT WED MAR 29 2017

NOTE "FAIR" INDICATES FEW OR NO CLOUDS BELOW 12,000 FEET
WITH NO SIGNIFICANT WEATHER AND/OR OBSTRUCTIONS TO VISIBILITY.

KYZ001>023-026-027-061>063-070>075-291900-
WESTERN AND SOUTH CENTRAL KENTUCKY

CITY           SKY/WX    TMP DP  RH WIND       PRES   REMARKS
PADUCAH        PTSUNNY   69  54  58 SE9       29.99F
HENDERSON      MOSUNNY   66  54  63 E10       30.03R
OWENSBORO      SUNNY    N/A N/A N/A SE9       30.05F
HOPKINSVILLE   MOSUNNY   71  57  61 NE9       30.02F
BOWLING GREEN  MOSUNNY   72  55  55 NE12      30.06F
GLASGOW        MOSUNNY   71  55  58 CALM      30.08F
$$

KYZ024-025-028>034-038-045-046-053-291900-
NORTH CENTRAL KENTUCKY

CITY           SKY/WX    TMP DP  RH WIND       PRES   REMARKS
LOUISVILLE/SDF PTSUNNY   60  46  59 E6        30.13F
LOUISVILLE/LOU CLOUDY    60  48  64 MISG      30.14F
FORT KNOX      MOSUNNY   61  51  68 NE9       30.09F
$$

KYZ035>037-039>044-047>052-055>060-089>105-291900-
NORTHEAST KENTUCKY

CITY           SKY/WX    TMP DP  RH WIND       PRES   REMARKS
LEXINGTON      CLOUDY    59  47  64 NE6       30.15S
COVINGTON      PTSUNNY   54  42  64 NE5       30.18S
FRANKFORT      CLOUDY    60  47  61 NE5       30.14F
$$

KYZ054-064>069-076>088-106>120-291900-
SOUTHEAST KENTUCKY

CITY           SKY/WX    TMP DP  RH WIND       PRES   REMARKS
JACKSON        CLOUDY    60  48  64 VRB5      30.12F
LONDON         MOSUNNY   68  50  52 VRB3      30.09F
SOMERSET       PTSUNNY   66  52  59 CALM      30.10F
MIDDLESBORO    MOSUNNY   71  51  49 E5        30.07F
MONTICELLO     PTCLDY    68  54  60 VRB6      30.11R
$$





USA.gov is the U.S. government's official web portal to all federal, state and local government web resources and services.